1306281634172,0.610291
1306281694172,0.604608
1306281754172,0.611170
1306281814172,0.614255
1306281874172,0.610888
1306281934172,0.612680
1306281994172,0.614520
1306282054172,0.611578
1306282114172,0.614859
1306282174172,0.610967
1306282234172,0.609742
1306282294172,0.617107
1306282354172,0.612482
1306282414172,0.612979
1306282474172,0.613573
1306282534172,0.607896
1306282594172,0.609376
1306282654172,0.605449
1306282714172,0.612666
1306282774172,0.611133
1306282834172,0.606580
1306282894172,0.606894
1306282954172,0.611023
1306283014172,0.606067
1306283074172,0.612284
1306283134172,0.605194
1306283194172,0.606020
1306283254172,0.612499
1306283314172,0.610714
1306283374172,0.606238
1306283434172,0.609704
1306283494172,0.611588
1306283554172,0.607584
1306283614172,0.611853
1306283674172,0.611431
1306283734172,0.605120
1306283794172,0.610798
1306283854172,0.611969
1306283914172,0.608047
1306283974172,0.618062
1306284034172,0.603479
1306284094172,0.614662
1306284154172,0.607654
1306284214172,0.606994
1306284274172,0.609077
1306284334172,0.610269
1306284394172,0.605974
1306284454172,0.601663
1306284514172,0.613488
1306284574172,0.613542
1306284634172,0.611116
1306284694172,0.598870
1306284754172,0.607145
1306284814172,0.610577
1306284874172,0.607431
1306284934172,0.607143
1306284994172,0.610744
1306285054172,0.612654
1306285114172,0.607499
1306285174172,0.612253
1306285234182,0.608038
1306285294182,0.604199
1306285354182,0.608978
1306285414182,0.603014
1306285474182,0.607156
1306285534182,0.604383
1306285594182,0.607567
1306285654182,0.602891
1306285714182,0.604671
1306285774182,0.602150
1306285834182,0.605373
1306285894182,0.610735
1306285954182,0.605513
1306286014182,0.608651
1306286074182,0.606921
1306286134182,0.610915
1306286194182,0.601605
1306286254182,0.602869
1306286314182,0.600296
1306286374182,0.602692
1306286434182,0.602596
1306286494182,0.598983
1306286554182,0.601782
1306286614182,0.607101
1306286674182,0.606861
1306286734182,0.599208
1306286794182,0.603204
1306286854182,0.604293
1306286914182,0.607106
1306286974182,0.603850
1306287034182,0.602336
1306287094182,0.611611
1306287154182,0.602411
1306287214182,0.605526
1306287274182,0.607612
1306287334182,0.602248
1306287394182,0.603072
1306287454182,0.607716
1306287514182,0.605834
1306287574182,0.603249
1306287634182,0.608525
1306287694182,0.600733
1306287754182,0.603059
1306287814182,0.605737
1306287874182,0.612208
1306287934182,0.604196
1306287994182,0.609406
1306288054182,0.605195
1306288114182,0.598371
1306288174182,0.604395
1306288234182,0.609343
1306288294182,0.601412
1306288354182,0.604063
1306288414182,0.604556
1306288474182,0.602197
1306288534182,0.606520
1306288594182,0.599961
1306288654182,0.602726
1306288714182,0.607055
1306288774182,0.602848
1306288834192,0.600987
1306288894192,0.604193
1306288954192,0.597356
1306289014192,0.607722
1306289074192,0.599103
1306289134192,0.603026
1306289194192,0.603117
1306289254192,0.600888
1306289314192,0.600565
1306289374192,0.605744
1306289434192,0.600728
1306289494192,0.605161
1306289554192,0.602436
1306289614192,0.602992
1306289674192,0.605433
1306289734192,0.601943
1306289794192,0.602170
1306289854192,0.602111
1306289914192,0.601221
1306289974192,0.602420
1306290034192,0.596188
1306290094192,0.604090
1306290154192,0.598628
1306290214192,0.602349
1306290274192,0.598007
1306290334192,0.603462
1306290394192,0.599594
1306290454192,0.601558
1306290514192,0.605264
1306290574192,0.599657
1306290634192,0.605056
1306290694192,0.597020
1306290754192,0.605092
1306290814192,0.605528
1306290874192,0.608334
1306290934192,0.595081
1306290994192,0.596449
1306291054192,0.604456
1306291114192,0.604176
1306291174192,0.598289
1306291234192,0.603184
1306291294192,0.605563
1306291354192,0.600482
1306291414192,0.606200
1306291474192,0.606469
1306291534192,0.603164
1306291594192,0.605860
1306291654192,0.607527
1306291714192,0.599451
1306291774192,0.597871
1306291834192,0.603341
1306291894192,0.600985
1306291954192,0.602382
1306292014192,0.602151
1306292074192,0.598964
1306292134192,0.601470
1306292194192,0.606323
1306292254192,0.603503
1306292314192,0.602501
1306292374192,0.604894
1306292434202,0.601166
1306292494202,0.618975
1306292554202,0.607559
1306292614202,0.606993
1306292674202,0.597357
1306292734202,0.602286
1306292794202,0.597333
1306292854202,0.598301
1306292914202,0.603901
1306292974202,0.601893
1306293034202,0.604855
1306293094202,0.605169
1306293154202,0.595953
1306293214202,0.601543
1306293274202,0.605260
1306293334202,0.604389
1306293394202,0.605389
1306293454202,0.601070
1306293514202,0.593148
1306293574202,0.603531
1306293634202,0.604672
1306293694202,0.599312
1306293754202,0.597880
1306293814202,0.603841
1306293874202,0.605236
1306293934202,0.607937
1306293994202,0.597308
1306294054202,0.602068
1306294114202,0.604741
1306294174202,0.602971
1306294234202,0.601349
1306294294202,0.599820
1306294354202,0.606732
1306294414202,0.603459
1306294474202,0.600731
1306294534202,0.604973
1306294594202,0.607629
1306294654202,0.601128
1306294714202,0.601125
1306294774202,0.597122
1306294834202,0.607437
1306294894202,0.604048
1306294954202,0.605551
1306295014202,0.606510
1306295074202,0.601123
1306295134202,0.606753
1306295194202,0.603731
1306295254202,0.604300
1306295314202,0.603633
1306295374202,0.601802
1306295434202,0.599827
1306295494202,0.604522
1306295554202,0.603796
1306295614202,0.603765
1306295674202,0.611300
1306295734202,0.602313
1306295794202,0.603083
1306295854202,0.609325
1306295914202,0.611617
1306295974202,0.606786
1306296034211,0.614488
1306296094211,0.614939
1306296154211,0.609374
1306296214211,0.610786
1306296274211,0.612559
1306296334211,0.609932
1306296394211,0.613216
1306296454211,0.606740
1306296514211,0.611481
1306296574211,0.601071
1306296634211,0.607457
1306296694211,0.613752
1306296754211,0.613091
1306296814211,0.610784
1306296874211,0.606668
1306296934211,0.605448
1306296994211,0.603426
1306297054211,0.610524
1306297114211,0.612447
1306297174211,0.614535
1306297234211,0.616548
1306297294211,0.613265
1306297354211,0.607532
1306297414211,0.604067
1306297474211,0.607135
1306297534211,0.600233
1306297594211,0.618511
1306297654211,0.614286
1306297714211,0.614038
1306297774211,0.612335
1306297834211,0.603771
1306297894211,0.609719
1306297954211,0.618302
1306298014211,0.624740
1306298074211,0.619463
1306298134211,0.614416
1306298194211,0.614266
1306298254211,0.611692
1306298314211,0.611425
1306298374211,0.614555
1306298434211,0.615889
1306298494211,0.617009
1306298554211,0.620173
1306298614211,0.619435
1306298674211,0.608242
1306298734211,0.615969
1306298794211,0.613553
1306298854211,0.612372
1306298914211,0.608372
1306298974211,0.614781
1306299034211,0.619793
1306299094211,0.612569
1306299154211,0.613745
1306299214211,0.609973
1306299274211,0.610340
1306299334211,0.610449
1306299394211,0.615935
1306299454211,0.613352
1306299514211,0.613445
1306299574211,0.605584
1306299634221,0.611570
1306299694221,0.609347
1306299754221,0.614640
1306299814221,0.612517
1306299874221,0.612213
1306299934221,0.608428
1306299994221,0.609261
1306300054221,0.609972
1306300114221,0.611436
1306300174221,0.608718
1306300234221,0.607829
1306300294221,0.610759
1306300354221,0.611009
1306300414221,0.607411
1306300474221,0.603988
1306300534221,0.603810
1306300594221,0.609599
1306300654221,0.607690
1306300714221,0.606699
1306300774221,0.606353
1306300834221,0.602620
1306300894221,0.605621
1306300954221,0.608239
1306301014221,0.606563
1306301074221,0.607205
1306301134221,0.603512
1306301194221,0.611043
1306301254221,0.605234
1306301314221,0.604489
1306301374221,0.605542
1306301434221,0.608200
1306301494221,0.595969
1306301554221,0.602722
1306301614221,0.605709
1306301674221,0.599681
1306301734221,0.608242
1306301794221,0.606012
1306301854221,0.607090
1306301914221,0.598885
1306301974221,0.603146
1306302034221,0.612585
1306302094221,0.599257
1306302154221,0.606369
1306302214221,0.599496
1306302274221,0.603088
1306302334221,0.601512
1306302394221,0.605058
1306302454221,0.600944
1306302514221,0.605775
1306302574221,0.603001
1306302634221,0.607261
1306302694221,0.597132
1306302754221,0.597877
1306302814221,0.604409
1306302874221,0.601854
1306302934221,0.599850
1306302994221,0.601894
1306303054221,0.593401
1306303114221,0.601526
1306303174221,0.602072
1306303234230,0.604837
1306303294230,0.602701
1306303354230,0.596721
1306303414230,0.598453
1306303474230,0.600970
1306303534230,0.600888
1306303594230,0.604823
1306303654230,0.597338
1306303714230,0.604666
1306303774230,0.596643
1306303834230,0.604745
1306303894230,0.603262
1306303954230,0.602421
1306304014230,0.601347
1306304074230,0.599346
1306304134230,0.603073
1306304194230,0.602592
1306304254230,0.604974
1306304314230,0.608409
1306304374230,0.599393
1306304434230,0.594848
1306304494230,0.599573
1306304554230,0.593983
1306304614230,0.598802
1306304674230,0.603880
1306304734230,0.599929
1306304794230,0.595492
1306304854230,0.599341
1306304914230,0.597483
1306304974230,0.601572
1306305034230,0.601045
1306305094230,0.604944
1306305154230,0.601644
1306305214230,0.603362
1306305274230,0.592810
1306305334230,0.594648
1306305394230,0.600161
1306305454230,0.605574
1306305514230,0.604835
1306305574230,0.599258
1306305634230,0.600859
1306305694230,0.594926
1306305754230,0.596344
1306305814230,0.595470
1306305874230,0.595170
1306305934230,0.601399
1306305994230,0.600763
1306306054230,0.604684
1306306114230,0.597265
1306306174230,0.599900
1306306234230,0.599152
1306306294230,0.597014
1306306354230,0.596605
1306306414230,0.597195
1306306474230,0.598975
1306306534230,0.595860
1306306594230,0.603487
1306306654230,0.599238
1306306714230,0.591800
1306306774230,0.598254
1306306834239,0.598202
1306306894239,0.597824
1306306954239,0.597401
1306307014239,0.597622
1306307074239,0.597308
1306307134239,0.600879
1306307194239,0.591034
1306307254239,0.591773
1306307314239,0.598458
1306307374239,0.593528
1306307434239,0.594182
1306307494239,0.594968
1306307554239,0.597855
1306307614239,0.595445
1306307674239,0.593678
1306307734239,0.595051
1306307794239,0.599825
1306307854239,0.591764
1306307914239,0.597790
1306307974239,0.598507
1306308034239,0.591597
1306308094239,0.594007
1306308154239,0.595816
1306308214239,0.602013
1306308274239,0.596878
1306308334239,0.594764
1306308394239,0.596264
1306308454239,0.595358
1306308514239,0.595089
1306308574239,0.599874
1306308634239,0.590348
1306308694239,0.598236
1306308754239,0.604415
1306308814239,0.597016
1306308874239,0.593078
1306308934239,0.600109
1306308994239,0.591942
1306309054239,0.599139
1306309114239,0.600625
1306309174239,0.602179
1306309234239,0.595176
1306309294239,0.596458
1306309354239,0.598087
1306309414239,0.601530
1306309474239,0.598173
1306309534239,0.598113
1306309594239,0.598681
1306309654239,0.592886
1306309714239,0.598077
1306309774239,0.600328
1306309834239,0.606506
1306309894239,0.606044
1306309954239,0.601121
1306310014239,0.598672
1306310074239,0.593662
1306310134239,0.597293
1306310194239,0.598544
1306310254239,0.597732
1306310314239,0.595979
1306310374239,0.600521
1306310434248,0.595013
1306310494248,0.595621
1306310554248,0.596028
1306310614248,0.593474
1306310674248,0.591694
1306310734248,0.597999
1306310794248,0.596085
1306310854248,0.597300
1306310914248,0.591543
1306310974248,0.600365
1306311034248,0.594540
1306311094248,0.594816
1306311154248,0.599636
1306311214248,0.599290
1306311274248,0.595454
1306311334248,0.596498
1306311394248,0.593807
1306311454248,0.595142
1306311514248,0.596989
1306311574248,0.594664
1306311634248,0.597386
1306311694248,0.595662
1306311754248,0.592489
1306311814248,0.596226
1306311874248,0.607706
1306311934248,0.594156
1306311994248,0.599304
1306312054248,0.594182
1306312114248,0.597849
1306312174248,0.597152
1306312234248,0.595282
1306312294248,0.597961
1306312354248,0.596841
1306312414248,0.591925
1306312474248,0.593841
1306312534248,0.592199
1306312594248,0.603771
1306312654248,0.593906
1306312714248,0.599333
1306312774248,0.599053
1306312834248,0.593170
1306312894248,0.588961
1306312954248,0.598505
1306313014248,0.596516
1306313074248,0.593229
1306313134248,0.599743
1306313194248,0.595490
1306313254248,0.594060
1306313314248,0.603785
1306313374248,0.593017
1306313434248,0.607727
1306313494248,0.597855
1306313554248,0.595375
1306313614248,0.597123
1306313674248,0.596365
1306313734248,0.597764
1306313794248,0.594004
1306313854248,0.593396
1306313914248,0.590249
1306313974248,0.593390
1306314034257,0.591033
1306314094257,0.603015
1306314154257,0.598544
1306314214257,0.593358
1306314274257,0.597001
1306314334257,0.594706
1306314394257,0.598071
1306314454257,0.598907
1306314514257,0.595020
1306314574257,0.600816
1306314634257,0.596684
1306314694257,0.596394
1306314754257,0.592301
1306314814257,0.607086
1306314874257,0.599131
1306314934257,0.602880
1306314994257,0.598081
1306315054257,0.596787
1306315114257,0.594778
1306315174257,0.599943
1306315234257,0.590811
1306315294257,0.599892
1306315354257,0.594321
1306315414257,0.597448
1306315474257,0.589456
1306315534257,0.597819
1306315594257,0.602845
1306315654257,0.592139
1306315714257,0.600288
1306315774257,0.602442
1306315834257,0.596580
1306315894257,0.601025
1306315954257,0.596093
1306316014257,0.596060
1306316074257,0.605603
1306316134257,0.593720
1306316194257,0.596721
1306316254257,0.602327
1306316314257,0.598339
1306316374257,0.593253
1306316434257,0.594683
1306316494257,0.599454
1306316554257,0.596308
1306316614257,0.594409
1306316674257,0.603667
1306316734257,0.606416
1306316794257,0.601818
1306316854257,0.597598
1306316914257,0.596688
1306316974257,0.594037
1306317034257,0.599754
1306317094257,0.596505
1306317154257,0.596174
1306317214257,0.595181
1306317274257,0.595687
1306317334257,0.599169
1306317394257,0.597199
1306317454257,0.594395
1306317514257,0.595271
1306317574257,0.592794
1306317634266,0.602236
1306317694266,0.594113
1306317754266,0.602625
1306317814266,0.598527
1306317874266,0.596491
1306317934266,0.595886
1306317994266,0.593157
1306318054266,0.593529
1306318114266,0.600204
1306318174266,0.594347
1306318234266,0.599037
1306318294266,0.596590
1306318354266,0.593354
1306318414266,0.596506
1306318474266,0.596880
1306318534266,0.594510
1306318594266,0.595627
1306318654266,0.594932
1306318714266,0.598496
1306318774266,0.598147
1306318834266,0.601589
1306318894266,0.599978
1306318954266,0.594834
1306319014266,0.595848
1306319074266,0.590243
1306319134266,0.596617
1306319194266,0.595802
1306319254266,0.594045
1306319314266,0.599502
1306319374266,0.599940
1306319434266,0.599577
1306319494266,0.595005
1306319554266,0.595945
1306319614266,0.599536
1306319674266,0.595333
1306319734266,0.597437
1306319794266,0.594946
1306319854266,0.596392
1306319914266,0.596407
1306319974266,0.595923
1306320034266,0.598505
1306320094266,0.592528
1306320154266,0.588285
1306320214266,0.592410
1306320274266,0.596199
1306320334266,0.592794
1306320394266,0.591711
1306320454266,0.592158
1306320514266,0.588616
1306320574266,0.604772
1306320634266,0.589024
1306320694266,0.592701
1306320754266,0.595138
1306320814266,0.591705
1306320874266,0.593514
1306320934266,0.592432
1306320994266,0.600790
1306321054266,0.593066
1306321114266,0.596996
1306321174266,0.596527
1306321234275,0.595085
1306321294275,0.598901
1306321354275,0.598055
1306321414275,0.587637
1306321474275,0.595269
1306321534275,0.597539
1306321594275,0.593746
1306321654275,0.597279
1306321714275,0.593193
1306321774275,0.594122
1306321834275,0.599252
1306321894275,0.595389
1306321954275,0.590579
1306322014275,0.594406
1306322074275,0.597442
1306322134275,0.604518
1306322194275,0.599927
1306322254275,0.593366
1306322314275,0.594154
1306322374275,0.591132
1306322434275,0.592480
1306322494275,0.589586
1306322554275,0.588168
1306322614275,0.597765
1306322674275,0.599263
1306322734275,0.599749
1306322794275,0.594373
1306322854275,0.592131
1306322914275,0.601264
1306322974275,0.592930
1306323034275,0.595510
1306323094275,0.597809
1306323154275,0.599140
1306323214275,0.592808
1306323274275,0.596084
1306323334275,0.592193
1306323394275,0.600281
1306323454275,0.596886
1306323514275,0.598760
1306323574275,0.595788
1306323634275,0.599517
1306323694275,0.597928
1306323754275,0.594674
1306323814275,0.593688
1306323874275,0.599402
1306323934275,0.590619
1306323994275,0.600434
1306324054275,0.594584
1306324114275,0.596726
1306324174275,0.597642
1306324234275,0.591843
1306324294275,0.594549
1306324354275,0.595343
1306324414275,0.590734
1306324474275,0.597436
1306324534275,0.597493
1306324594275,0.594299
1306324654275,0.598050
1306324714275,0.594058
1306324774275,0.590634
1306324834284,0.599294
1306324894284,0.596810
1306324954284,0.594761
1306325014284,0.599178
1306325074285,0.599291
1306325134285,0.595932
1306325194285,0.599079
1306325254285,0.589300
1306325314284,0.591265
1306325374284,0.593239
1306325434285,0.601927
1306325494285,0.599896
1306325554285,0.593257
1306325614285,0.599865
1306325674285,0.590444
1306325734285,0.589591
1306325794285,0.599911
1306325854285,0.599929
1306325914285,0.596932
1306325974285,0.604030
1306326034284,0.597382
1306326094284,0.601388
1306326154284,0.597171
1306326214284,0.598030
1306326274284,0.596922
1306326334284,0.601820
1306326394285,0.594489
1306326454285,0.598960
1306326514285,0.595298
1306326574285,0.596177
1306326634285,0.596083
1306326694284,0.594636
1306326754285,0.605717
1306326814285,0.597923
1306326874285,0.596080
1306326934285,0.590047
1306326994285,0.599671
1306327054285,0.597917
1306327114285,0.591053
1306327174285,0.597213
1306327234285,0.597602
1306327294285,0.595504
1306327354284,0.601779
1306327414284,0.601549
1306327474284,0.594615
1306327534284,0.598797
1306327594284,0.598526
1306327654284,0.597663
1306327714284,0.598483
1306327774285,0.602684
1306327834285,0.598946
1306327894285,0.601973
1306327954285,0.598805
1306328014284,0.603408
1306328074284,0.600865
1306328134285,0.606005
1306328194285,0.597309
1306328254285,0.599113
1306328314285,0.601985
1306328374285,0.603355
1306328434294,0.604381
1306328494294,0.601729
1306328554294,0.595283
1306328614294,0.601821
1306328674294,0.605355
1306328734294,0.601311
1306328794294,0.602134
1306328854294,0.605147
1306328914294,0.606769
1306328974294,0.604111
1306329034294,0.600817
1306329094294,0.609500
1306329154294,0.598976
1306329214294,0.601363
1306329274294,0.607844
1306329334294,0.603175
1306329394294,0.601602
1306329454294,0.604270
1306329514294,0.600789
1306329574294,0.602862
1306329634294,0.598091
1306329694294,0.600435
1306329754294,0.603306
1306329814294,0.600405
1306329874294,0.599469
1306329934294,0.602256
1306329994294,0.599745
1306330054294,0.604645
1306330114294,0.600243
1306330174294,0.599992
1306330234294,0.600825
1306330294294,0.600994
1306330354294,0.600273
1306330414294,0.601512
1306330474294,0.597789
1306330534294,0.599464
1306330594294,0.601364
1306330654294,0.603188
1306330714294,0.604460
1306330774294,0.607685
1306330834294,0.598126
1306330894294,0.604191
1306330954294,0.603161
1306331014294,0.595115
1306331074294,0.596637
1306331134294,0.602448
1306331194294,0.598715
1306331254294,0.600979
1306331314294,0.601374
1306331374294,0.601892
1306331434294,0.606334
1306331494294,0.601176
1306331554294,0.596852
1306331614294,0.599506
1306331674294,0.601608
1306331734294,0.594513
1306331794294,0.599164
1306331854294,0.598085
1306331914294,0.599036
1306331974294,0.602444
1306332034303,0.602544
1306332094303,0.596839
1306332154303,0.605173
1306332214303,0.599461
1306332274303,0.599634
1306332334303,0.598065
1306332394303,0.603886
1306332454303,0.596192
1306332514303,0.598740
1306332574303,0.603327
1306332634303,0.594714
1306332694303,0.601166
1306332754303,0.598845
1306332814303,0.597836
1306332874303,0.599088
1306332934303,0.596476
1306332994303,0.594936
1306333054303,0.598825
1306333114303,0.595444
1306333174303,0.602083
1306333234303,0.600428
1306333294303,0.596151
1306333354303,0.590845
1306333414303,0.591768
1306333474303,0.594425
1306333534303,0.596667
1306333594303,0.596673
1306333654303,0.592616
1306333714303,0.594713
1306333774303,0.598068
1306333834303,0.603569
1306333894303,0.598248
1306333954303,0.599335
1306334014303,0.598778
1306334074303,0.600268
1306334134303,0.598875
1306334194303,0.596019
1306334254303,0.593847
1306334314303,0.596666
1306334374303,0.599370
1306334434303,0.599958
1306334494303,0.595010
1306334554303,0.599344
1306334614303,0.594167
1306334674303,0.593347
1306334734303,0.597732
1306334794303,0.597456
1306334854303,0.593477
1306334914303,0.594528
1306334974303,0.595927
1306335034303,0.603963
1306335094303,0.596093
1306335154303,0.596857
1306335214303,0.594507
1306335274303,0.601771
1306335334303,0.597896
1306335394303,0.602037
1306335454303,0.601254
1306335514303,0.593338
1306335574303,0.592828
1306335634312,0.599852
1306335694312,0.598607
1306335754312,0.596781
1306335814312,0.602918
1306335874312,0.598144
1306335934312,0.595357
1306335994312,0.593535
1306336054312,0.592490
1306336114312,0.595769
1306336174312,0.601549
1306336234312,0.595461
1306336294312,0.595605
1306336354312,0.596049
1306336414312,0.594157
1306336474312,0.595960
1306336534312,0.596661
1306336594312,0.599961
1306336654312,0.594031
1306336714312,0.598002
1306336774312,0.594955
1306336834312,0.595259
1306336894312,0.591467
1306336954312,0.597533
1306337014312,0.600344
1306337074312,0.595094
1306337134312,0.598863
1306337194312,0.598252
1306337254312,0.588999
1306337314312,0.590113
1306337374312,0.600054
1306337434312,0.592718
1306337494312,0.595653
1306337554312,0.591903
1306337614312,0.594951
1306337674312,0.599867
1306337734312,0.596032
1306337794312,0.596476
1306337854312,0.595642
1306337914312,0.597272
1306337974312,0.595995
1306338034312,0.598001
1306338094312,0.600351
1306338154312,0.599882
1306338214312,0.594734
1306338274312,0.599283
1306338334312,0.600731
1306338394312,0.595367
1306338454312,0.594688
1306338514312,0.600636
1306338574312,0.597250
1306338634312,0.604176
1306338694312,0.608449
1306338754312,0.597343
1306338814312,0.593661
1306338874312,0.597606
1306338934312,0.608505
1306338994312,0.591629
1306339054312,0.591745
1306339114312,0.593142
1306339174312,0.592378
1306339234321,0.593193
1306339294321,0.595377
1306339354321,0.598174
1306339414321,0.598675
1306339474321,0.598874
1306339534321,0.596171
1306339594321,0.600239
1306339654321,0.593303
1306339714321,0.594412
1306339774321,0.594494
1306339834321,0.597487
1306339894321,0.599686
1306339954321,0.595147
1306340014321,0.596127
1306340074321,0.590571
1306340134321,0.596599
1306340194321,0.594168
1306340254321,0.590329
1306340314321,0.591618
1306340374321,0.596614
1306340434321,0.595975
1306340494321,0.593793
1306340554321,0.591854
1306340614321,0.592423
1306340674321,0.598747
1306340734321,0.597267
1306340794321,0.593333
1306340854321,0.591577
1306340914321,0.594071
1306340974321,0.593677
1306341034321,0.589896
1306341094321,0.595905
1306341154321,0.590260
1306341214321,0.596290
1306341274321,0.594846
1306341334321,0.595191
1306341394321,0.593017
1306341454321,0.591382
1306341514321,0.593093
1306341574321,0.592880
1306341634321,0.600833
1306341694321,0.599156
1306341754321,0.595178
1306341814321,0.592511
1306341874321,0.589703
1306341934321,0.595365
1306341994321,0.594801
1306342054321,0.595249
1306342114321,0.591820
1306342174321,0.589703
1306342234321,0.593195
1306342294321,0.593488
1306342354321,0.589518
1306342414321,0.597739
1306342474321,0.590405
1306342534321,0.598174
1306342594321,0.596580
1306342654321,0.588042
1306342714321,0.595357
1306342774321,0.593106
1306342834330,0.594113
1306342894330,0.596786
1306342954330,0.597816
1306343014330,0.595035
1306343074330,0.595362
1306343134330,0.593333
1306343194330,0.596516
1306343254330,0.599697
1306343314330,0.591551
1306343374330,0.593039
1306343434330,0.586620
1306343494330,0.591528
1306344034330,0.601126
1306344094330,0.595755
1306344154330,0.596541
1306344214330,0.590863
1306344274330,0.597789
1306344334330,0.598533
1306344394330,0.598241
1306344454330,0.599230
1306344514330,0.592719
1306344574330,0.591588
1306344634330,0.597752